Home   Weather   Buchs   Past weeks

Flag for Switzerland Past Weather in Buchs, St. Gallen, Switzerland — Yesterday and Last 2 Weeks

Now
64 °F

Mild.


Feels Like: 64 °F
Forecast: 60 / 85 °F
Wind: No wind

Location: Vaduz

Current Time: Aug 30, 2016 at 10:55:03 PM

Latest Report: Aug 30, 2016 at 10:00 PM


Visibility: N/A

Pressure: 30.14 "Hg

Humidity: 90%

Dew Point: 62 °F

Location of BuchsLocation

Past Weather in Buchs — Graph

°F

Buchs Temperature Yesterday

Maximum temperature yesterday: 74 °F (at 12:00 AM)
Minimum temperature yesterday: 63 °F (at 9:00 AM)
Average temperature yesterday: 67 °F

High & Low Weather Summary for the Past Weeks

 TemperatureHumidityPressure
High87 °F (Aug 26, 4:00 PM)97% (Aug 18, 10:00 PM)30.42 "Hg (Aug 18, 10:00 PM)
Low54 °F (Aug 22, 7:00 AM)47% (Aug 22, 2:00 PM)29.78 "Hg (Aug 18, 3:00 PM)
Average69 °F73%30.06 "Hg
* Reported Aug 15 9:00 PM — Aug 30 9:00 PM, Buchs, Weather by CustomWeather, © 2016

Note: Actual official high and low records may vary slightly from our data, if they occured in-between our weather recording intervals... More about our weather records

Advertising

Buchs Weather History for the Previous 24 Hours

Scroll right to see more
 ConditionsComfort  
Time TempWeatherWind HumidityBarometerVisibility
9:00 PM
Tue, Aug 30
67 °FMild.No wind83%30.13 "HgN/A
8:00 PM68 °FPartly sunny.No wind80%30.11 "Hg12 mi
7:00 PM73 °FMild.6 mph62%30.07 "HgN/A
6:00 PM75 °FMild.7 mph58%30.08 "HgN/A
5:00 PM76 °FScattered clouds.9 mph57%30.08 "Hg5 mi
4:00 PM76 °FMild.9 mph57%30.09 "HgN/A
3:00 PM76 °FMild.9 mph60%30.09 "HgN/A
2:00 PM74 °FPartly sunny.8 mph63%30.11 "Hg2 mi
1:00 PM73 °FMild.5 mph64%30.12 "HgN/A
12:00 PM72 °FMild.5 mph65%30.14 "HgN/A
11:00 AM69 °FFog.3 mph76%30.16 "Hg5 mi
9:00 AM63 °FMild.No wind89%30.18 "HgN/A
8:00 AM62 °FFog.1 mph92%30.18 "Hg3 mi
7:00 AM61 °FCool.1 mph94%30.18 "HgN/A
6:00 AM62 °FCool.2 mph95%30.16 "HgN/A
5:00 AM63 °FOvercast.No wind92%30.16 "Hg9 mi
4:00 AM63 °FMild.1 mph95%30.17 "HgN/A
3:00 AM63 °FMild.2 mph91%30.17 "HgN/A
2:00 AM63 °FFog.2 mph93%30.19 "Hg5 mi
1:00 AM64 °FMild.No wind94%30.19 "HgN/A
12:00 AM65 °FMild.2 mph94%30.18 "HgN/A
11:00 PM
Mon, Aug 29
65 °FFog.1 mph95%30.17 "Hg5 mi
10:00 PM66 °FMild.1 mph91%30.16 "HgN/A
Weather by CustomWeather, © 2016

See weather overviewHow to use our weather pages